Location: Eyeline Observatory
(43.2182°N, 78.8632°W)
Time: 16:48:49
(UTC-04:00)

ISS - Pass Details

Date: 08 October 2017
Orbit: 401 x 408 km, 51.6° (Epoch: 18 October)

Event Time Altitude Azimuth Distance (km) Brightness Sun altitude
Rises 19:49:00 0° 303° (WNW) 2,326 1.2 -12.7°
Reaches altitude 10° 19:51:22 10° 319° (NW) 1,466 -0.3 -13.1°
Maximum altitude 19:54:03 23° 14° (NNE) 924 -2.1 -13.6°
Enters shadow 19:55:22 18° 48° (NE) 1,080 -2.1 -13.8°
